Аэропорт
Дашогуз (UTAT)

 UTAT / TAZ
ЗЦ Центральная Азия
Дашогуз (UTAT)
Дашогуз (UTAT)
 41.76110, 59.82670  / 272 ft

 UTAT 201200Z 05010KT CAVOK 03/M01 Q1017 R08/CLRD70 NOSIG
 TAF UTAT 200430Z 2006/2106 01016KT 6000 OVC005 TEMPO 2006/2015 3000 -SN BR OVC003 TEMPO 2015/2023 1000 SN OVC002
UTAT_aip_1705
показать схемы

Аэропорт Дашогуз — аэропорт в 10 км на юго-запад от Дашогуза, Туркмения. Основан в 1924 году.

Дашогуз является одним из старейших аэропортов Туркмении. Первый авиарейс выполнен в 1924 году. В 2009 году завершена реконструкция здания аэровокзала. 



2020 © VATRUS division (Privacy Policy)